Shaw AFB, SC

2:52 PM EST on December 16, 2017 (GMT -0500)
Shaw Air Force Base

Weather History for KSSC - October, 2012

Change the Weather History Date:

Thursday, October 4, 2012

  Actual Average Record
Temperature  
Mean Temperature 72 °F -  
Max Temperature 78 °F 76 °F 87 °F (2002)
Min Temperature 67 °F 56 °F 49 °F (2011)
Cooling Degree Days 7    
Growing Degree Days 22 (Base 50)    
Moisture  
Dew Point 66 °F    
Average Humidity 84    
Maximum Humidity 94    
Minimum Humidity 57    
Precipitation  
Precipitation 0.27 in - - ()
Sea Level Pressure  
Sea Level Pressure 30.20 in    
Wind  
Wind Speed 2 mph (WNW)    
Max Wind Speed 8 mph    
Max Gust Speed -    
Visibility 8 miles    
Events Rain    
Averages and records for this station are not official NWS values.
T = Trace of Precipitation, MM = Missing Value Source: NWS Daily Summary

Daily Weather History Graph

Daily Weather History Graph

Search for Another Location

Airport or City:

Trip Planner

Search our weather history database for the weather conditions in past years. The results will help you decide how hot, cold, wet, or windy it might be!

Date:

Astronomy

Oct. 04, 2012 Rise Set
Actual Time 7:18 AM EDT 7:01 PM EDT
Civil Twilight 6:53 AM EDT 7:26 PM EDT
Nautical Twilight 6:24 AM EDT 7:55 PM EDT
Astronomical Twilight 5:55 AM EDT 8:24 PM EDT
Moon 9:48 PM EDT (10/4) 11:22 AM EDT (10/4)
Length of Visible Light 12h 32m
Length of Day
11h 42m
Waning Gibbous, 82% of the Moon is Illuminated
Oct 4
Waning Gibbous
Oct 8
Last Quarter
Oct 15
New
Oct 21
First Quarter
Oct 29
Full

Hourly Weather History & Observations

Time (EDT) Temp. Dew Point Humidity Pressure Visibility Wind Dir Wind Speed Gust Speed Precip Events Conditions
12:24 AM 73.4 °F 66.2 °F 78% 30.19 in 10.0 mi Calm Calm - N/A   Clear
12:55 AM 72.1 °F 68.0 °F 87% 30.19 in 10.0 mi Calm Calm - 0.00 in   Clear
1:05 AM 71.6 °F 68.0 °F 88% 30.19 in 10.0 mi Calm Calm - N/A Rain Light Rain
1:17 AM 71.6 °F 68.0 °F 88% 30.19 in 10.0 mi SSE 3.5 mph - N/A   Clear
1:20 AM 71.6 °F 68.0 °F 88% 30.19 in 10.0 mi SSE 3.5 mph - N/A   Light Drizzle
1:33 AM 71.6 °F 68.0 °F 88% 30.19 in 10.0 mi Calm Calm - N/A Rain Light Rain
1:55 AM 71.4 °F 68.4 °F 90% 30.19 in 10.0 mi SW 3.5 mph - 0.01 in Rain Light Rain
2:10 AM 71.6 °F 68.0 °F 88% 30.17 in 10.0 mi Calm Calm - N/A Rain Light Rain
2:23 AM 71.6 °F 68.0 °F 88% 30.17 in 10.0 mi Calm Calm - N/A   Partly Cloudy
2:55 AM 71.1 °F 68.7 °F 92% 30.19 in 10.0 mi Calm Calm - 0.00 in   Mostly Cloudy
3:55 AM 70.7 °F 66.9 °F 88% 30.19 in 10.0 mi West 4.6 mph - N/A   Overcast
4:55 AM 70.7 °F 67.5 °F 89% 30.19 in 10.0 mi Calm Calm - N/A   Overcast
5:55 AM 70.2 °F 66.6 °F 88% 30.20 in 10.0 mi WNW 3.5 mph - N/A   Mostly Cloudy
6:14 AM 69.8 °F 66.2 °F 88% 30.21 in 10.0 mi WNW 8.1 mph - N/A   Light Drizzle
6:36 AM 69.8 °F 66.2 °F 88% 30.22 in 2.5 mi West 4.6 mph - N/A Rain Heavy Rain
6:38 AM 69.8 °F 66.2 °F 88% 30.22 in 1.5 mi West 4.6 mph - N/A Rain Heavy Rain
6:39 AM 69.8 °F 66.2 °F 88% 30.22 in 1.5 mi West 3.5 mph - N/A Rain Heavy Rain
6:40 AM 69.8 °F 66.2 °F 88% 30.22 in 1.2 mi Calm Calm - N/A Rain Heavy Rain
6:41 AM 69.8 °F 66.2 °F 88% 30.22 in 1.0 mi Calm Calm - N/A Rain Heavy Rain
6:43 AM 68.0 °F 66.2 °F 94% 30.22 in 1.0 mi NW 3.5 mph - N/A Rain Heavy Rain
6:45 AM 68.0 °F 66.2 °F 94% 30.22 in 1.0 mi NW 4.6 mph - N/A Rain Heavy Rain
6:47 AM 68.0 °F 66.2 °F 94% 30.22 in 1.2 mi NNW 3.5 mph - N/A Rain Rain
6:48 AM 68.0 °F 66.2 °F 94% 30.21 in 1.5 mi NNW 4.6 mph - N/A Rain Rain
6:50 AM 68.0 °F 66.2 °F 94% 30.21 in 2.0 mi NNW 3.5 mph - N/A Rain Light Rain
6:51 AM 68.0 °F 66.2 °F 94% 30.21 in 3.0 mi NNW 4.6 mph - N/A Rain Light Rain
6:55 AM 68.7 °F 65.8 °F 90% 30.21 in 6.0 mi North 4.6 mph - 0.24 in Rain Light Rain
6:56 AM 68.0 °F 66.2 °F 94% 30.21 in 7.0 mi North 3.5 mph - N/A Rain Light Rain
7:03 AM 68.0 °F 66.2 °F 94% 30.21 in 8.0 mi North 5.8 mph - N/A Rain Light Rain
7:04 AM 68.0 °F 66.2 °F 94% 30.21 in 8.0 mi North 5.8 mph - N/A Rain Light Rain
7:12 AM 68.0 °F 66.2 °F 94% 30.20 in 10.0 mi North 4.6 mph - N/A Rain Light Rain
7:27 AM 68.0 °F 66.2 °F 94% 30.21 in 8.0 mi Calm Calm - N/A Rain Light Rain
7:55 AM 68.5 °F 65.5 °F 90% 30.22 in 5.0 mi NW 3.5 mph - 0.02 in Rain Light Rain
8:29 AM 68.0 °F 64.4 °F 88% 30.22 in 6.0 mi NNW 3.5 mph - N/A   Overcast
8:55 AM 67.8 °F 64.6 °F 89% 30.24 in 6.0 mi NW 3.5 mph - 0.00 in   Overcast
9:12 AM 68.0 °F 64.4 °F 88% 30.23 in 7.0 mi NW 6.9 mph - N/A   Overcast
9:55 AM 69.1 °F 64.0 °F 84% 30.25 in 10.0 mi Calm Calm - N/A   Overcast
10:55 AM 70.5 °F 64.6 °F 81% 30.25 in 10.0 mi West 4.6 mph - N/A Rain Light Rain
11:39 AM 69.8 °F 64.4 °F 83% 30.24 in 7.0 mi West 3.5 mph - N/A Rain Light Rain
11:55 AM 70.7 °F 65.3 °F 83% 30.25 in 10.0 mi West 5.8 mph - 0.00 in   Overcast
12:05 PM 71.6 °F 66.2 °F 83% 30.25 in 10.0 mi Variable 4.6 mph - N/A   Mostly Cloudy
12:17 PM 71.6 °F 66.2 °F 83% 30.24 in 10.0 mi West 5.8 mph - N/A   Overcast
12:55 PM 72.9 °F 65.1 °F 77% 30.24 in 10.0 mi WNW 4.6 mph - N/A   Overcast
1:24 PM 73.4 °F 64.4 °F 73% 30.22 in 10.0 mi Variable 3.5 mph - N/A   Mostly Cloudy
1:55 PM 74.8 °F 64.8 °F 71% 30.21 in 10.0 mi Calm Calm - N/A   Scattered Clouds
2:06 PM 75.2 °F 64.4 °F 69% 30.19 in 10.0 mi West 4.6 mph - N/A   Mostly Cloudy
2:20 PM 75.2 °F 64.4 °F 69% 30.20 in 10.0 mi West 3.5 mph - N/A   Mostly Cloudy
2:55 PM 75.2 °F 64.8 °F 70% 30.19 in 10.0 mi West 6.9 mph - N/A   Mostly Cloudy
3:55 PM 77.0 °F 64.9 °F 66% 30.18 in 10.0 mi Calm Calm - N/A   Mostly Cloudy
4:02 PM 77.0 °F 64.4 °F 65% 30.18 in 10.0 mi Variable 3.5 mph - N/A   Scattered Clouds
4:03 PM 77.0 °F 64.4 °F 65% 30.18 in 10.0 mi Variable 3.5 mph - N/A   Mostly Cloudy
4:11 PM 77.0 °F 64.4 °F 65% 30.17 in 10.0 mi West 6.9 mph - N/A   Mostly Cloudy
4:55 PM 77.5 °F 63.0 °F 61% 30.16 in 10.0 mi Variable 5.8 mph - N/A   Scattered Clouds
5:55 PM 77.7 °F 61.3 °F 57% 30.17 in 10.0 mi West 3.5 mph - N/A   Scattered Clouds
6:55 PM 75.4 °F 63.3 °F 66% 30.16 in 10.0 mi Calm Calm - N/A   Clear
7:55 PM 70.9 °F 64.8 °F 81% 30.17 in 10.0 mi Calm Calm - N/A   Clear
8:55 PM 70.5 °F 66.0 °F 86% 30.18 in 10.0 mi Calm Calm - N/A   Clear
9:55 PM 69.6 °F 64.9 °F 85% 30.19 in 10.0 mi Calm Calm - N/A   Clear
10:55 PM 68.2 °F 65.3 °F 90% 30.20 in 10.0 mi Calm Calm - N/A   Clear
11:55 PM 67.5 °F 64.0 °F 89% 30.21 in 10.0 mi Calm Calm - N/A   Clear